CW3518 Weather Reports


time (UTC)temp
C
wind
direction
speed
KPH
gust
KPH
rain 1hr
cm
rain 24hr
cm
rain mn
cm
humidity
%
barometer
mb
20260504050502 17 196 6.4 9.7 0.00 0.00 0.00 61 1015.3
20260504050002 17 196 8.0 9.7 0.00 0.00 0.00 60 1015.3
20260504045002 17 196 6.4 11.3 0.00 0.00 0.00 60 1015.4
20260504044501 17 208 9.7 12.9 0.00 0.00 0.00 60 1015.4
20260504044001 17 213 9.7 12.9 0.00 0.00 0.00 59 1015.4
20260504043501 17 200 9.7 11.3 0.00 0.00 0.00 59 1015.5
20260504042501 17 204 8.0 9.7 0.00 0.00 0.00 58 1015.6
20260504042001 17 189 4.8 9.7 0.00 0.00 0.00 58 1015.6
20260504041001 17 203 6.4 9.7 0.00 0.00 0.00 57 1015.7
20260504040501 17 189 4.8 8.0 0.00 0.00 0.00 57 1015.7
20260504040031 18 195 4.8 11.3 0.00 0.00 0.00 56 1015.8
20260504035501 18 190 4.8 11.3 0.00 0.00 0.00 56 1015.8
20260504035001 18 189 6.4 8.0 0.00 0.00 0.00 56 1015.7
20260504034531 18 188 4.8 8.0 0.00 0.00 0.00 56 1015.7
20260504034001 18 177 4.8 8.0 0.00 0.00 0.00 56 1015.6
20260504033501 18 167 6.4 8.0 0.00 0.00 0.00 56 1015.6
20260504032531 18 184 4.8 8.0 0.00 0.00 0.00 56 1015.5
20260504032001 18 169 6.4 8.0 0.00 0.00 0.00 56 1015.5
20260504031501 18 165 6.4 8.0 0.00 0.00 0.00 55 1015.5
20260504031001 18 181 4.8 8.0 0.00 0.00 0.00 55 1015.5
20260504030532 18 171 6.4 8.0 0.00 0.00 0.00 54 1015.6
20260504030005 18 169 6.4 8.0 0.00 0.00 0.00 54 1015.5
20260504025533 18 177 4.8 8.0 0.00 0.00 0.00 53 1015.4
20260504025031 18 179 4.8 9.7 0.00 0.00 0.00 53 1015.4
20260504024501 18 155 6.4 9.7 0.00 0.00 0.00 53 1015.4
20260504024001 19 151 8.0 11.3 0.00 0.00 0.00 52 1015.3
20260504023501 19 157 8.0 11.3 0.00 0.00 0.00 52 1015.3
20260504023001 19 153 8.0 11.3 0.00 0.00 0.00 52 1015.3
20260504022501 19 143 9.7 11.3 0.00 0.00 0.00 51 1015.3
20260504022001 20 142 11.3 11.3 0.00 0.00 0.00 51 1015.3
20260504021501 20 153 8.0 14.5 0.00 0.00 0.00 50 1015.3
20260504021001 20 142 9.7 14.5 0.00 0.00 0.00 50 1015.3
20260504015501 20 149 9.7 12.9 0.00 0.00 0.00 49 1015.2
20260504015001 20 148 9.7 11.3 0.00 0.00 0.00 49 1015.2
20260504014501 20 148 8.0 11.3 0.00 0.00 0.00 48 1015.2
20260504014001 20 157 11.3 11.3 0.00 0.00 0.00 47 1015.1
20260504013501 21 149 9.7 11.3 0.00 0.00 0.00 47 1015.1
20260504011501 22 175 8.0 11.3 0.00 0.00 0.00 42 1014.9
20260504011002 22 180 8.0 12.9 0.00 0.00 0.00 42 1014.9
20260504010501 22 187 9.7 14.5 0.00 0.00 0.00 41 1014.9
20260504005001 23 186 9.7 12.9 0.00 0.00 0.00 39 1014.8
20260504004501 23 163 6.4 14.5 0.00 0.00 0.00 39 1014.8
20260504004001 23 197 11.3 16.1 0.00 0.00 0.00 38 1014.8
20260504003501 23 186 11.3 16.1 0.00 0.00 0.00 37 1014.8
20260504003001 24 205 14.5 16.1 0.00 0.00 0.00 36 1014.9
20260504002001 25 200 14.5 20.9 0.00 0.00 0.00 34 1014.8
20260504001501 25 203 19.3 20.9 0.00 0.00 0.00 34 1014.9
20260504001001 25 204 16.1 20.9 0.00 0.00 0.00 33 1015.0
20260504000501 25 203 12.9 20.9 0.00 0.00 0.00 34 1015.0
20260504000001 25 202 16.1 20.9 0.00 0.00 0.00 34 1015.0
20260503235002 25 205 11.3 27.4 0.00 0.00 0.00 35 1015.1
20260503234001 25 208 19.3 27.4 0.00 0.00 0.00 32 1015.0
20260503233501 26 200 19.3 27.4 0.00 0.00 0.00 32 1015.2
20260503233001 26 200 17.7 27.4 0.00 0.00 0.00 33 1015.2
20260503231501 26 208 16.1 25.7 0.00 0.00 0.00 32 1015.3
20260503231001 26 189 20.9 20.9 0.00 0.00 0.00 31 1015.3
20260503230501 26 205 16.1 25.7 0.00 0.00 0.00 31 1015.3
20260503230001 26 189 19.3 30.6 0.00 0.00 0.00 30 1015.3
20260503225501 26 214 25.7 30.6 0.00 0.00 0.00 31 1015.3
20260503225001 26 205 16.1 29.0 0.00 0.00 0.00 31 1015.4
20260503224531 26 197 25.7 30.6 0.00 0.00 0.00 29 1015.3
20260503224003 26 199 22.5 30.6 0.00 0.00 0.00 30 1015.4
20260503223031 26 193 17.7 32.2 0.00 0.00 0.00 31 1015.5
20260503222531 26 195 14.5 32.2 0.00 0.00 0.00 31 1015.5
20260503222001 26 203 20.9 30.6 0.00 0.00 0.00 30 1015.5
20260503221502 26 226 22.5 27.4 0.00 0.00 0.00 31 1015.5
20260503221001 26 204 17.7 30.6 0.00 0.00 0.00 30 1015.6
20260503220532 26 191 16.1 37.0 0.00 0.00 0.00 31 1015.7
20260503220001 26 180 14.5 37.0 0.00 0.00 0.00 30 1015.8
20260503215502 26 216 20.9 32.2 0.00 0.00 0.00 31 1015.9
20260503215001 26 209 25.7 29.0 0.00 0.00 0.00 31 1015.9
20260503214531 26 207 17.7 27.4 0.00 0.00 0.00 31 1016.0
20260503214001 26 201 20.9 29.0 0.00 0.00 0.00 29 1016.1
20260503213002 26 205 20.9 30.6 0.00 0.00 0.00 32 1016.3
20260503212501 26 196 24.1 27.4 0.00 0.00 0.00 32 1016.3
20260503211031 26 231 16.1 29.0 0.00 0.00 0.00 33 1016.6
20260503210501 26 222 27.4 29.0 0.00 0.00 0.00 31 1016.6
20260503210001 26 204 17.7 29.0 0.00 0.00 0.00 33 1016.8
20260503205531 26 205 17.7 29.0 0.00 0.00 0.00 32 1016.9
20260503205031 26 207 20.9 38.6 0.00 0.00 0.00 32 1016.9
20260503204001 26 223 25.7 29.0 0.00 0.00 0.00 32 1017.0
20260503203531 26 220 25.7 29.0 0.00 0.00 0.00 30 1017.2
20260503203001 26 223 14.5 25.7 0.00 0.00 0.00 31 1017.4
20260503202531 26 235 9.7 30.6 0.00 0.00 0.00 34 1017.5
20260503202031 26 226 30.6 30.6 0.00 0.00 0.00 32 1017.4
20260503201502 26 187 19.3 27.4 0.00 0.00 0.00 31 1017.5
20260503200532 26 222 17.7 30.6 0.00 0.00 0.00 32 1017.7
20260503200032 26 241 24.1 30.6 0.00 0.00 0.00 30 1017.7
20260503195501 26 200 17.7 32.2 0.00 0.00 0.00 30 1017.8
20260503195001 26 220 27.4 40.2 0.00 0.00 0.00 31 1017.8
20260503194033 26 224 20.9 37.0 0.00 0.00 0.00 32 1018.1
20260503193502 26 239 32.2 37.0 0.00 0.00 0.00 36 1018.1
20260503193001 26 200 24.1 33.8 0.00 0.00 0.00 33 1018.2
20260503192502 26 247 17.7 32.2 0.00 0.00 0.00 38 1018.3
20260503191002 26 226 20.9 33.8 0.00 0.00 0.00 37 1018.5
20260503190501 26 233 24.1 37.0 0.00 0.00 0.00 37 1018.6
20260503190002 26 222 29.0 37.0 0.00 0.00 0.00 34 1018.6
20260503184502 26 252 24.1 32.2 0.00 0.00 0.00 38 1018.8
20260503184001 25 229 24.1 32.2 0.00 0.00 0.00 37 1018.9
20260503183001 25 232 24.1 30.6 0.00 0.00 0.00 37 1019.1
20260503182502 25 218 25.7 33.8 0.00 0.00 0.00 36 1019.1
20260503181502 25 250 17.7 33.8 0.00 0.00 0.00 40 1019.3
20260503180501 25 270 20.9 32.2 0.00 0.00 0.00 42 1019.4
20260503175532 25 230 25.7 33.8 0.00 0.00 0.00 41 1019.6
20260503175001 25 237 19.3 33.8 0.00 0.00 0.00 42 1019.7
20260503174501 25 248 24.1 30.6 0.00 0.00 0.00 42 1019.8
20260503174002 25 259 19.3 27.4 0.00 0.00 0.00 41 1019.9
20260503173502 25 238 20.9 29.0 0.00 0.00 0.00 40 1020.0
20260503173001 25 267 24.1 32.2 0.00 0.00 0.00 41 1020.0
20260503172502 25 237 25.7 32.2 0.00 0.00 0.00 41 1020.0
20260503172001 25 264 19.3 32.2 0.00 0.00 0.00 42 1020.1
20260503171502 25 221 20.9 30.6 0.00 0.00 0.00 42 1020.1
20260503171001 25 217 29.0 30.6 0.00 0.00 0.00 41 1020.3
20260503170501 25 260 24.1 25.7 0.00 0.00 0.00 41 1020.4
20260503150531 21 242 25.7 33.8 0.00 0.00 0.00 49 1020.7
20260503130501 14 219 11.3 14.5 0.00 0.00 0.00 75 1020.6
20260503110502 12 223 11.3 12.9 0.00 0.00 0.00 77 1019.7
20260503090502 13 228 9.7 11.3 0.00 0.00 0.00 73 1019.7
20260503081502 13 236 11.3 14.5 0.00 0.00 0.00 74 1019.6
20260503081002 13 236 12.9 14.5 0.00 0.00 0.00 74 1019.6
20260503080502 13 232 11.3 12.9 0.00 0.00 0.00 76 1019.6